{"data":{"norad_id":53434,"intl_designator":"2022-097AY","name":"STARLINK-4498","alt_names":[],"object_type":"PAYLOAD","status":"ACTIVE","operator":null,"country":"US","launch_date":"2022-08-10","launch_site_code":"AFETR","launch_vehicle":null,"mission":null,"orbit_class":"UNKNOWN","rcs_meters":null,"size_class":null,"mass_kg":null,"dimensions":null,"purposes":["comms"],"wikipedia_slug":null,"has_3d_model":false,"image_url":null,"decayed_at":null,"tle_current":{"epoch":"2026-05-25T06:00:02.000160Z","epoch_age_seconds":49970,"freshness":"FRESH","line1":"1 53434U 22097AY  26145.25002315  .00676620  00000+0  41646-2 0  9994","line2":"2 53434  53.2171 102.6717 0000862 121.4550 225.6567 15.74733893  5860","mean_motion":15.74733893,"eccentricity":8.62e-5,"inclination_deg":53.2171,"raan_deg":102.6717,"arg_perigee_deg":121.455,"mean_anomaly_deg":225.6567,"bstar":0.0041646,"rev_number":586,"period_min":91.444021520149,"perigee_km":344.80895852208,"apogee_km":345.96809432283,"semimajor_km":6723.5255264225,"source":"CELESTRAK","updated_at":"2026-05-25T13:38:17.406655Z"}}}